weather.gov     
National Weather Service

Regional Weather Roundup
NWS Homepage
This page is being discontinued on March 12, 2014.
The same data is available at this site. Please update your bookmarks.
Thank you, and we apologize for the inconvenience.
Please send an email to SR-SRH.Webmaster@noaa.gov with any concerns.


Current Version
Previous Version:    01  02  03  04  05  06  07  08  09  10  11  12  13  14  15  16  17  18  19  20  21  22  23  24  25  26  
[Printable]
071
ASUS44 KLZK 241405
RWRLZK

WEATHER ROUNDUP FOR ARKANSAS
NATIONAL WEATHER SERVICE LITTLE ROCK AR
900 AM CDT THU APR 24 2014

NOTE: "FAIR" INDICATES FEW OR NO CLOUDS BELOW 12,000 FEET WITH NO
SIGNIFICANT WEATHER AND/OR OBSTRUCTIONS TO VISIBILITY.

ARZ001-003-010-029-241500-
NORTHWEST ARKANSAS

CITY           SKY/WX    TMP DP  RH WIND       PRES   REMARKS
FAYETTEVILLE   PTSUNNY   64  54  69 SW17      29.82R
FORT SMITH     TSTM      63  54  72 NW13      29.84R
HARRISON       CLOUDY    68  52  56 SW12G22   29.80R
BENTONVILLE    CLOUDY    66  52  59 S20G28    29.79R
ROGERS         CLOUDY    66  54  65 S24       29.78R
SILOAM SPGS    PTSUNNY   63  50  63 S32G39    29.78R
HIGHFILL       CLOUDY    65  54  67 S24G35    29.77R
SPRINGDALE     CLOUDY    66  54  63 S14G25    29.82R
$$

ARZ004-005-016-241500-
NORTH CENTRAL ARKANSAS

CITY           SKY/WX    TMP DP  RH WIND       PRES   REMARKS
BATESVILLE     SUNNY     64  46  52 SE6       29.83F
FLIPPIN        PTSUNNY   66  39  37 S7G18     29.78R
MTN HOME       PTSUNNY   65  41  41 S8        29.77F
$$

ARZ040-041-241500-
WEST CENTRAL ARKANSAS

CITY           SKY/WX    TMP DP  RH WIND       PRES   REMARKS
MENA           MOSUNNY  N/A N/A N/A S9G21     29.82R
MOUNT IDA      PTSUNNY   67  57  70 W5        29.80F
$$

ARZ009-017-025-026-028-241500-
NORTHEAST ARKANSAS

CITY           SKY/WX    TMP DP  RH WIND       PRES   REMARKS
CORNING        FAIR      64  43  45 S12       29.87F
JONESBORO      PTSUNNY   61  45  55 S12       29.88F
NEWPORT        PTSUNNY   63  48  57 SE13      29.86F
WALNUT RIDGE   PTSUNNY   64  43  45 S15       29.86F
BLYTHEVILLE    PTSUNNY   63  39  41 S14       29.91F
NW BLYTHEVILLE PTSUNNY   63  41  45 S12       29.91
$$

ARZ022-023-033-042-044-241500-
CENTRAL ARKANSAS

CITY           SKY/WX    TMP DP  RH WIND       PRES   REMARKS
LITTLE ROCK    PTSUNNY   64  49  57 S12       29.84F
N LITTLE ROCK  PTSUNNY   64  51  60 S14       29.84F
JACKSONVILLE   MOSUNNY   65  50  57 S9        29.83F
SEARCY         MOSUNNY   63  51  64 SE9       29.85F
HOT SPRINGS    MOSUNNY   67  53  61 S6        29.84S
RUSSELLVILLE   MOSUNNY   65  49  56 VRB3      29.80R
CLINTON        FAIR      63  52  67 NW3       29.83F
$$

ARZ036-241500-
EAST ARKANSAS

CITY           SKY/WX    TMP DP  RH WIND       PRES   REMARKS
WEST MEMPHIS   MOSUNNY   63  47  55 SE10      29.90F
$$

ARZ050-053-066-070-073-241500-
SOUTHWEST ARKANSAS

CITY           SKY/WX    TMP DP  RH WIND       PRES   REMARKS
ARKADELPHIA    FAIR      64  55  72 S3        29.85F
CAMDEN         MOSUNNY   63  54  72 MISG      29.86F
TEXARKANA      PTSUNNY   66  61  84 S13G20    29.83F
EL DORADO      PTSUNNY   64  56  75 S8        29.89S
DE QUEEN       CLOUDY    65  59  81 E5        29.82R
$$

ARZ056-057-069-241500-
SOUTHEAST ARKANSAS

CITY           SKY/WX    TMP DP  RH WIND       PRES   REMARKS
PINE BLUFF     MOSUNNY   64  52  64 S6        29.87F
STUTTGART      MOSUNNY   64  50  59 SE10      29.87F
MONTICELLO     LGT RAIN  65  54  67 SE5       29.88F

$$






U.S. Dept. of Commerce
NOAA National Weather Service
1325 East West Highway
Silver Spring, MD 20910
E-mail: w-nws.webmaster@noaa.gov
Page last modified: May 16, 2007
NATIONAL WEATHER SERVICE: for Safety, for Work, for Fun - FOR LIFE